CAPE
0 0 0 0 0 0 0 0 0 0 0 0 0 0 0 0 0 0 0 0 0 0 0 0 0 0 0 0 0 0 0 0 0 0 0 0 88 0 0 0 0 0 152 169 12
0 0 0 0 0 0 0 0 0 0 0 0 0 0 0 0 0 0 0 0 0 0 0 0 0 0 0 0 0 0 0 0 0 0 0 0 9 0 0 0 0 5 26 0 0
0 0 0 0 0 0 0 0 0 0 0 0 0 0 0 0 0 0 0 0 0 0 0 0 0 0 0 0 0 0 0 0 0 0 0 0 0 0 0 0 0 0 0 0 0
0 0 0 0 0 0 0 0 0 0 0 0 0 0 0 0 0 0 0 0 0 0 0 0 0 0 0 0 0 0 0 0 0 0 0 0 0 0 0 0 0 0 0 0 0
0 0 0 0 0 0 0 0 0 0 0 0 0 0 0 0 0 0 0 0 0 0 0 0 0 0 0 0 0 0 0 0 0 0 0 0 0 0 0 0 0 0 0 0 0
0 0 0 0 0 0 0 0 0 0 0 0 0 0 0 0 0 0 0 0 0 0 0 0 0 0 0 0 0 0 0 0 0 0 0 0 0 0 0 0 0 0 0 0 0
0 0 0 0 0 0 0 0 0 0 0 0 0 0 0 0 0 0 0 0 0 0 0 0 0 0 0 0 0 0 0 0 0 0 0 0 0 0 0 0 0 0 0 0 0
0 0 0 0 0 0 0 0 0 0 0 0 0 0 0 0 0 0 0 0 0 0 0 0 0 0 0 0 0 0 0 0 0 0 0 0 0 0 0 0 0 0 0 0 0
0 0 0 0 0 0 0 0 0 0 0 0 0 0 0 0 0 0 0 0 0 0 0 0 0 0 0 0 0 0 0 0 0 0 0 0 0 0 0 0 0 0 0 0 0
0 0 0 0 0 0 0 0 0 0 0 0 0 0 0 0 0 0 0 0 0 0 0 0 0 0 0 0 0 0 0 0 0 0 0 0 0 0 0 0 0 0 0 0 0
0 0 0 0 0 0 0 0 0 0 0 0 0 0 0 0 0 0 0 0 0 0 0 0 0 0 0 0 0 0 0 0 0 0 0 0 0 0 0 0 0 0 0 0 0
0 0 0 0 0 0 0 0 0 0 0 0 0 0 0 0 0 0 0 0 0 0 0 0 0 0 0 0 0 0 0 0 0 0 0 0 0 0 0 0 0 0 0 0 0
0 0 0 0 0 0 0 0 0 0 0 0 0 0 0 0 0 0 0 0 0 0 0 0 0 0 0 0 0 0 0 0 0 0 0 0 0 0 0 0 0 0 0 0 0
0 0 0 0 0 0 0 0 0 0 0 0 0 0 0 0 0 0 0 0 0 0 0 0 0 0 0 0 0 0 0 0 0 0 0 0 0 0 0 0 0 0 0 0 0
0 0 0 0 0 0 0 0 0 0 0 0 0 0 0 0 0 0 0 0 0 0 0 0 0 0 0 0 0 0 0 0 0 0 0 0 0 0 0 0 0 0 0 0 0
0 0 0 0 0 0 0 0 0 0 0 0 0 0 0 0 0 0 0 0 0 0 0 0 0 0 0 0 0 0 0 0 0 0 0 0 0 0 0 0 0 0 0 0 0
0 0 0 0 0 0 0 0 0 0 0 0 0 0 0 0 0 0 0 0 0 0 0 0 0 0 0 0 0 0 0 0 0 0 0 0 0 0 0 0 0 0 0 0 0
0 0 0 0 0 0 0 0 0 0 0 0 0 0 0 0 0 0 0 0 0 0 0 0 0 0 0 0 0 0 0 0 0 0 0 0 0 0 0 0 0 0 0 0 0
0 0 0 0 0 0 0 0 0 0 0 0 0 0 0 0 0 0 0 0 0 0 0 0 0 0 0 0 0 0 0 0 0 0 0 0 0 0 0 0 0 0 0 0 0
0 0 0 0 0 0 0 0 0 0 0 0 0 0 0 0 0 0 0 0 0 0 0 0 0 0 0 0 0 0 0 0 0 0 0 0 0 0 0 0 0 0 0 0 0
0 0 0 0 0 0 0 0 0 0 0 0 0 0 0 0 0 0 0 0 0 0 0 0 0 0 0 0 0 0 0 0 0 0 0 0 0 0 0 0 0 0 0 0 0
0 0 0 0 0 0 0 0 0 0 0 0 0 0 0 0 0 0 0 0 0 0 0 0 0 0 0 0 0 0 0 0 0 0 0 0 0 0 0 0 0 0 0 0 0
0 0 0 0 0 0 0 0 0 0 0 0 0 0 0 0 0 0 0 0 0 0 0 0 0 0 0 0 0 0 0 0 0 0 0 0 0 0 0 0 0 0 0 0 0
0 0 0 0 0 0 0 0 0 0 0 0 0 0 0 0 0 3 2 0 0 0 0 0 0 0 0 0 0 0 0 0 0 0 0 0 0 0 0 0 0 0 0 0 0
0 0 0 0 0 0 0 0 0 0 0 0 0 0 0 0 0 0 0 0 0 0 0 0 0 0 0 0 0 0 0 0 0 0 0 0 0 0 0 0 0 0 0 0 0
0 0 0 0 0 0 0 0 0 0 0 0 0 0 0 0 0 0 0 0 0 0 0 0 0 0 0 0 0 0 0 0 0 0 0 0 0 0 0 0 0 0 0 0 0
0 0 0 0 0 0 0 0 0 0 0 0 0 0 0 0 0 0 0 0 0 0 0 0 0 1 0 0 0 0 0 0 0 0 0 0 0 0 0 0 0 0 0 0 0
CIN
-0 -0 -0 -0 -0 -0 -0 -0 -0 -0 -0 -0 -0 -0 -0 -0 -0 -0 -0 -0 -0 -0 -0 -0 -0 -0 -0 -0 -0 -0 -0 -0 -0 -0 -0 -0 -123 -0 -0 -0 -0 -0 -251 -287 -314
-0 -0 -0 -0 -0 -0 -0 -0 -0 -0 -0 -0 -0 -0 -0 -0 -0 -0 -0 -0 -0 -0 -0 -0 -0 -0 -0 -0 -0 -0 -0 -0 -0 -0 -0 -0 -43 -0 -0 -0 -0 -18 -275 -0 -0
-0 -0 -0 -0 -0 -0 -0 -0 -0 -0 -0 -0 -0 -0 -0 -0 -0 -0 -0 -0 -0 -0 -0 -0 -0 -0 -0 -0 -0 -0 -0 -0 -0 -0 -0 -0 -0 -0 -0 -0 -0 -0 -0 -0 -0
-0 -0 -0 -0 -0 -0 -0 -0 -0 -0 -0 -0 -0 -0 -0 -0 -0 -0 -0 -0 -0 -0 -0 -0 -0 -0 -0 -0 -0 -0 -0 -0 -0 -0 -0 -0 -0 -0 -0 -0 -0 -0 -0 -0 -0
-0 -0 -0 -0 -0 -0 -0 -0 -0 -0 -0 -0 -0 -0 -0 -0 -0 -0 -0 -0 -0 -0 -0 -0 -0 -0 -0 -0 -0 -0 -0 -0 -0 -0 -0 -0 -0 -0 -0 -0 -0 -0 -0 -0 -0
-0 -0 -0 -0 -0 -0 -0 -0 -0 -0 -0 -0 -0 -0 -0 -0 -0 -0 -0 -0 -0 -0 -0 -0 -0 -0 -0 -0 -0 -0 -0 -0 -0 -0 -0 -0 -0 -0 -0 -0 -0 -0 -0 -0 -0
-0 -0 -0 -0 -0 -0 -0 -0 -0 -0 -0 -0 -0 -0 -0 -0 -0 -0 -0 -0 -0 -0 -0 -0 -0 -0 -0 -0 -0 -0 -0 -0 -0 -0 -0 -0 -0 -0 -0 -0 -0 -0 -0 -0 -0
-0 -0 -0 -0 -0 -0 -0 -0 -0 -0 -0 -0 -0 -0 -0 -0 -0 -0 -0 -0 -0 -0 -0 -0 -0 -0 -0 -0 -0 -0 -0 -0 -0 -0 -0 -0 -0 -0 -0 -0 -0 -0 -0 -0 -0
-0 -0 -0 -0 -0 -0 -0 -0 -0 -0 -0 -0 -0 -0 -0 -0 -0 -0 -0 -0 -0 -0 -0 -0 -0 -0 -0 -0 -0 -0 -0 -0 -0 -0 -0 -0 -0 -0 -0 -0 -0 -0 -0 -0 -0
-0 -0 -0 -0 -0 -0 -0 -0 -0 -0 -0 -0 -0 -0 -0 -0 -0 -0 -0 -0 -0 -0 -0 -0 -0 -0 -0 -0 -0 -0 -0 -0 -0 -0 -0 -0 -0 -0 -0 -0 -0 -0 -0 -0 -0
-0 -0 -0 -0 -0 -0 -0 -0 -0 -0 -0 -0 -0 -0 -0 -0 -0 -0 -0 -0 -0 -0 -0 -0 -0 -0 -0 -0 -0 -0 -0 -0 -0 -0 -0 -0 -0 -0 -0 -0 -0 -0 -0 -0 -0
-0 -0 -0 -0 -0 -0 -0 -0 -0 -0 -0 -0 -0 -0 -0 -0 -0 -0 -0 -0 -0 -0 -0 -0 -0 -0 -0 -0 -0 -0 -0 -0 -0 -0 -0 -0 -0 -0 -0 -0 -0 -0 -0 -0 -0
-0 -0 -0 -0 -0 -0 -0 -0 -0 -0 -0 -0 -0 -0 -0 -0 -0 -0 -0 -0 -0 -0 -0 -0 -0 -0 -0 -0 -0 -0 -0 -0 -0 -0 -0 -0 -0 -0 -0 -0 -0 -0 -0 -0 -0
-0 -0 -0 -0 -0 -0 -0 -0 -0 -0 -0 -0 -0 -0 -0 -0 -0 -0 -0 -0 -0 -0 -0 -0 -0 -0 -0 -0 -0 -0 -0 -0 -0 -0 -0 -0 -0 -0 -0 -0 -0 -0 -0 -0 -0
-0 -0 -0 -0 -0 -0 -0 -0 -0 -0 -0 -0 -0 -0 -0 -0 -0 -0 -0 -0 -0 -0 -0 -0 -0 -0 -0 -0 -0 -0 -0 -0 -0 -0 -0 -0 -0 -0 -0 -0 -0 -0 -0 -0 -0
-0 -0 -0 -0 -0 -0 -0 -0 -0 -0 -0 -0 -0 -0 -0 -0 -0 -0 -0 -0 -0 -0 -0 -0 -0 -0 -0 -0 -0 -0 -0 -0 -0 -0 -0 -0 -0 -0 -0 -0 -0 -0 -0 -0 -0
-0 -0 -0 -0 -0 -0 -0 -0 -0 -0 -0 -0 -0 -0 -0 -0 -0 -0 -0 -0 -0 -0 -0 -0 -0 -0 -0 -0 -0 -0 -0 -0 -0 -0 -0 -0 -0 -0 -0 -0 -0 -0 -0 -0 -0
-0 -0 -0 -0 -0 -0 -0 -0 -0 -0 -0 -0 -0 -0 -0 -0 -0 -0 -0 -0 -0 -0 -0 -0 -0 -0 -0 -0 -0 -0 -0 -0 -0 -0 -0 -0 -0 -0 -0 -0 -0 -0 -0 -0 -0
-0 -0 -0 -0 -0 -0 -0 -0 -0 -0 -0 -0 -0 -0 -0 -0 -0 -0 -0 -0 -0 -0 -0 -0 -0 -0 -0 -0 -0 -0 -0 -0 -0 -0 -0 -0 -0 -0 -0 -0 -0 -0 -0 -0 -0
-0 -0 -0 -0 -0 -0 -0 -0 -0 -0 -0 -0 -0 -0 -0 -0 -0 -0 -0 -0 -0 -0 -0 -0 -0 -0 -0 -0 -0 -0 -0 -0 -0 -0 -0 -0 -0 -0 -0 -0 -0 -0 -0 -0 -0
-0 -0 -0 -0 -0 -0 -0 -0 -0 -0 -0 -0 -0 -0 -0 -0 -0 -0 -0 -0 -0 -0 -0 -0 -0 -0 -0 -0 -0 -0 -0 -0 -0 -0 -0 -0 -0 -0 -0 -0 -0 -0 -0 -0 -0
-0 -0 -0 -0 -0 -0 -0 -0 -0 -0 -0 -0 -0 -0 -0 -0 -0 -0 -0 -0 -0 -0 -0 -0 -0 -0 -0 -0 -0 -0 -0 -0 -0 -0 -0 -0 -0 -0 -0 -0 -0 -0 -0 -0 -0
-0 -0 -0 -0 -0 -0 -0 -0 -0 -0 -0 -0 -0 -0 -0 -0 -0 -0 -0 -0 -0 -0 -0 -0 -0 -0 -0 -0 -0 -0 -0 -0 -0 -0 -0 -0 -0 -0 -0 -0 -0 -0 -0 -0 -0
-0 -0 -0 -0 -0 -0 -0 -0 -0 -0 -0 -0 -0 -0 -0 -0 -0 -105 -68 -0 -0 -0 -0 -0 -0 -0 -0 -0 -0 -0 -0 -0 -0 -0 -0 -0 -0 -0 -0 -0 -0 -0 -0 -0 -0
-0 -0 -0 -0 -0 -0 -0 -0 -0 -0 -0 -0 -0 -0 -0 -0 -0 -0 -0 -0 -0 -0 -0 -0 -0 -0 -0 -0 -0 -0 -0 -0 -0 -0 -0 -0 -0 -0 -0 -0 -0 -0 -0 -0 -0
-0 -0 -0 -0 -0 -0 -0 -0 -0 -0 -0 -0 -0 -0 -0 -0 -0 -0 -0 -0 -0 -0 -0 -0 -0 -0 -0 -0 -0 -0 -0 -0 -0 -0 -0 -0 -0 -0 -0 -0 -0 -0 -0 -0 -0
-0 -0 -0 -0 -0 -0 -0 -0 -0 -0 -0 -0 -0 -0 -0 -0 -0 -0 -0 -0 -0 -0 -0 -0 -0 -32 -19 -0 -0 -0 -0 -0 -0 -0 -0 -0 -0 -0 -0 -0 -0 -0 -0 -0 -0
Wind_Speed
24 24 23 22 21 21 20 19 18 18 18 18 18 18 18 18 17 16 17 12 10 12 11 11 12 13 11 10 11 10 7 6 5 7 8 9 8 8 10 9 13 14 14 14 15
25 24 24 23 21 20 20 19 19 19 19 19 19 19 18 18 17 15 14 10 11 11 12 12 12 11 10 10 11 10 8 8 6 7 11 8 8 8 8 9 13 14 14 14 14
26 26 25 24 23 22 21 19 19 19 19 19 19 19 19 18 13 14 11 10 10 11 13 12 11 10 9 10 10 10 9 10 8 8 13 9 8 9 9 9 9 12 14 14 14
28 27 26 26 25 24 23 20 20 20 20 20 20 20 19 14 12 13 10 10 10 12 12 12 10 9 9 8 10 8 9 9 9 10 8 8 8 8 10 10 10 13 15 14 14
29 29 28 27 26 25 23 21 20 20 20 20 20 19 14 11 12 11 10 9 10 13 13 12 11 9 9 10 9 8 9 8 6 7 7 9 8 8 9 9 11 13 12 13 14
31 31 30 29 28 27 25 22 20 20 20 19 18 18 14 9 13 8 8 9 12 13 13 12 12 11 10 10 9 8 9 8 6 6 7 8 7 9 7 10 10 10 10 11 13
33 33 32 31 30 29 26 23 20 20 19 18 17 15 13 12 12 8 7 10 11 13 13 13 12 12 10 9 11 9 8 6 6 6 5 6 7 6 9 10 9 8 9 10 12
34 34 34 33 32 30 27 24 21 17 17 16 15 14 11 13 13 8 8 11 13 13 14 14 14 12 11 10 10 9 9 4 4 5 5 5 4 5 10 10 9 8 8 10 11
35 35 35 34 33 31 28 24 17 14 15 15 15 14 12 15 12 10 9 12 12 11 13 13 13 11 8 6 8 9 6 5 7 2 5 2 7 6 11 9 8 8 10 10 9
36 36 36 36 35 32 28 20 16 15 16 16 15 14 14 11 12 11 10 10 12 10 11 12 12 9 8 3 3 6 7 9 10 6 3 3 5 4 10 10 9 8 8 8 7
37 37 37 36 36 31 25 19 20 18 17 14 14 16 18 17 12 10 9 7 10 11 10 13 10 7 5 6 9 7 8 10 12 13 6 2 5 4 6 7 6 5 4 5 4
37 37 37 36 35 27 19 17 18 20 24 19 15 18 15 15 13 10 7 9 10 11 11 11 10 9 8 7 8 9 11 12 13 16 11 9 7 12 3 8 7 5 4 4 4
38 38 38 38 32 19 18 14 20 19 22 22 16 15 13 7 14 13 7 10 11 11 11 12 11 10 7 7 8 12 13 13 15 14 16 13 11 11 11 9 10 8 7 7 6
39 39 39 40 19 23 16 18 25 14 22 19 16 15 9 8 15 11 9 11 13 13 12 14 12 9 7 9 11 13 13 13 14 15 17 17 18 14 12 12 15 14 12 8 7
40 40 39 31 25 19 17 25 20 15 22 16 14 11 8 4 12 11 11 12 13 13 14 14 11 9 10 12 10 16 13 15 16 17 19 18 20 18 18 18 15 13 10 5 3
41 40 38 24 21 20 24 25 12 18 19 17 13 12 7 9 11 10 11 12 14 16 18 16 14 13 12 12 13 8 14 17 18 19 23 21 19 20 17 19 18 14 10 5 2
41 40 31 21 25 21 22 15 16 19 18 18 16 14 9 9 10 10 9 10 13 16 18 17 15 15 12 12 12 13 14 19 19 18 21 18 18 20 20 19 18 11 8 7 7
40 37 22 22 24 21 14 14 22 19 19 19 19 17 13 12 13 12 10 12 14 15 17 16 17 16 15 16 15 14 16 18 21 21 22 19 21 20 19 19 15 10 8 8 10
38 29 22 26 21 11 11 15 20 21 20 21 19 19 17 16 17 16 16 15 12 9 15 14 18 16 16 15 15 15 17 16 19 22 25 21 21 21 18 17 11 11 10 9 13
32 26 23 23 15 12 12 18 19 17 18 19 22 19 20 20 20 19 17 18 17 11 11 14 18 17 15 14 16 16 8 17 19 24 26 23 24 21 16 15 12 11 8 11 14
26 23 20 19 18 15 12 12 15 16 17 18 19 21 20 22 22 22 21 22 17 16 14 15 19 19 16 17 15 13 15 17 17 20 26 28 24 16 15 16 13 12 12 14 15
24 25 22 18 18 15 14 13 16 15 17 18 19 20 24 25 25 26 26 23 18 13 16 15 17 21 20 19 18 18 17 15 21 23 22 26 28 18 21 18 19 17 16 16 16
28 25 21 19 19 17 16 15 15 18 18 15 15 18 19 22 28 25 27 23 21 18 17 14 20 22 21 21 18 20 17 17 18 21 24 26 26 18 19 20 19 18 16 15 16
24 25 22 18 17 17 18 16 14 17 15 17 16 17 21 24 23 29 28 24 21 23 22 15 20 23 25 23 19 19 19 16 19 24 27 25 29 24 22 21 19 16 15 15 17
23 23 21 22 20 19 18 18 17 16 17 17 14 16 17 23 25 27 28 30 28 23 24 22 29 26 28 24 20 21 18 15 18 22 25 28 24 24 23 18 15 14 15 16 18
23 23 22 23 23 22 20 18 18 18 18 18 16 21 16 17 20 24 25 25 25 29 30 25 30 26 28 25 24 25 20 18 19 21 24 26 26 20 18 14 13 14 15 17 20
20 19 22 23 22 22 22 20 19 20 19 19 18 22 18 19 22 20 20 24 25 26 25 26 25 26 32 24 25 30 21 19 21 22 23 24 24 16 14 12 13 14 16 19 22
Wind_Direction
339 338 336 328 322 313 302 289 270 259 254 252 255 257 262 271 290 303 273 321 340 34 341 315 300 290 311 339 344 3 14 45 18 76 72 86 54 7 5 25 358 356 25 59 68
333 332 331 328 321 313 301 288 278 270 264 263 263 261 265 275 294 312 316 26 24 5 319 310 297 291 314 328 344 358 27 347 6 62 93 78 58 47 32 25 5 24 55 62 64
330 328 326 326 321 315 305 292 280 272 270 270 271 267 271 285 357 349 358 63 16 336 321 314 307 305 333 320 333 357 23 37 41 72 99 83 44 12 60 17 45 81 84 71 67
327 324 322 321 319 315 308 296 287 281 278 279 278 276 277 322 353 344 18 63 12 338 320 328 337 339 356 0 330 25 19 12 52 85 82 78 53 48 4 19 59 80 87 77 71
326 324 321 318 316 313 306 294 289 285 290 296 294 289 318 356 346 354 40 31 345 323 325 337 342 347 15 14 21 37 10 14 51 60 67 70 53 35 29 51 70 81 78 78 65
325 323 321 318 315 312 304 290 281 284 294 310 312 304 324 11 335 12 34 356 325 320 318 325 341 341 6 17 17 13 12 41 58 59 62 70 33 17 44 75 78 82 80 75 76
324 323 320 317 314 312 305 289 273 289 308 318 323 331 329 338 342 16 29 336 328 321 325 315 322 324 349 28 342 357 6 36 42 77 22 46 14 46 100 98 91 97 94 91 92
323 322 319 317 313 311 306 295 297 349 346 339 341 335 348 332 330 357 4 330 323 321 314 311 310 327 325 341 349 353 342 59 5 85 27 85 37 62 119 115 107 111 112 115 117
322 321 318 316 312 309 304 303 350 3 353 348 336 333 332 312 324 328 342 333 331 333 320 323 327 334 336 359 352 336 352 343 339 84 359 72 3 136 136 130 121 129 137 140 137
322 321 317 315 311 306 302 323 349 353 342 343 336 329 321 334 323 320 330 338 330 351 347 339 336 343 342 345 328 347 342 331 334 335 327 174 342 36 144 147 149 145 143 150 149
321 320 318 312 310 302 318 327 321 328 330 329 327 314 306 309 322 331 340 357 337 335 338 336 340 339 355 346 336 343 337 330 331 329 331 234 314 334 152 157 156 167 176 175 177
318 317 316 312 307 305 330 335 337 325 310 313 312 301 301 307 307 320 351 333 325 321 335 335 330 336 345 351 341 334 324 322 327 319 326 317 302 306 218 187 185 201 221 231 256
318 317 316 312 301 331 326 343 331 338 321 314 315 303 291 302 296 298 324 316 314 315 321 317 326 330 333 336 334 325 318 318 318 323 317 319 314 309 308 296 300 288 284 279 257
317 316 316 314 330 319 323 330 317 341 318 319 318 318 305 301 296 297 306 311 309 308 314 313 321 323 326 322 321 323 326 326 321 317 310 312 309 309 310 307 306 302 289 263 250
314 315 318 320 317 313 317 307 321 337 314 324 326 337 317 260 321 297 298 303 304 309 307 310 312 312 311 315 318 317 323 322 319 314 312 312 311 314 311 309 313 321 321 299 237
315 315 317 327 323 310 301 302 325 313 306 315 325 321 317 282 307 314 298 303 306 305 305 302 308 311 311 317 316 344 323 320 317 314 307 311 309 319 319 318 321 331 344 9 20
313 312 320 332 316 315 304 304 301 295 312 308 309 313 303 288 293 307 286 288 293 300 300 297 298 302 309 310 318 317 319 312 313 313 312 326 322 321 325 325 328 337 354 5 1
308 305 331 329 319 310 305 288 287 298 292 306 306 304 289 296 283 292 292 285 292 299 308 297 291 290 295 294 300 305 308 308 309 310 315 326 321 331 334 332 336 345 346 352 349
307 320 325 320 321 327 294 281 293 289 297 292 297 293 287 286 292 284 284 286 287 286 300 307 295 303 305 303 297 303 300 313 312 316 313 319 326 327 333 339 348 344 347 344 345
312 311 313 324 346 321 293 287 296 305 304 300 287 291 284 286 286 284 283 294 282 280 292 302 299 302 306 308 310 301 324 310 314 309 308 317 320 324 340 342 344 342 342 344 346
314 307 317 321 317 303 302 308 308 308 307 302 294 291 289 285 286 286 287 285 287 293 287 285 286 294 299 293 295 303 304 315 319 313 308 310 318 336 338 338 339 339 338 339 341
312 297 313 324 301 315 312 315 313 315 311 305 301 297 288 289 283 280 280 283 297 294 289 281 287 281 284 296 298 297 303 309 308 311 312 311 311 330 326 331 334 331 334 336 343
305 299 311 309 302 305 314 310 313 308 313 319 315 302 299 291 285 284 280 289 285 283 289 284 280 279 286 291 297 292 298 305 311 312 308 311 318 337 333 333 334 335 339 342 346
306 298 302 309 307 304 304 308 313 313 318 312 317 314 302 292 289 282 284 285 289 282 282 280 282 276 275 285 294 290 293 297 301 304 307 308 311 320 325 327 334 342 347 349 349
302 297 299 293 298 301 302 306 303 307 314 317 319 321 317 299 293 286 285 282 279 288 284 276 275 278 281 287 287 290 289 289 297 305 308 314 316 320 323 330 339 343 346 349 351
298 294 297 293 294 295 296 298 298 302 306 311 314 312 318 309 300 294 293 290 282 283 273 279 275 279 279 282 283 284 287 292 300 306 307 311 314 323 333 342 343 344 348 351 352
306 304 295 292 292 291 290 293 296 299 302 304 312 308 314 314 305 301 301 294 293 289 283 280 276 277 276 279 283 281 280 288 300 304 309 312 318 331 334 342 343 349 352 352 350